Location: Carrigahorig
(53.0625°N, 8.1439°W)
Time: 02:22:00
(UTC+00:00)

Helios 1A - Pass Details

Date: 15 May 2026
Orbit: 540 x 559 km, 98.2° (Epoch: 8 June)

Event Time Altitude Azimuth Distance (km) Brightness Sun altitude
Rises 22:10:59 0° 25° (NNE) 2,718 6.8 -12.0°
Reaches altitude 10° 22:13:30 10° 41° (NE) 1,817 5.7 -12.2°
Maximum altitude 22:16:37 22° 93° (E) 1,206 4.2 -12.4°
Enters shadow 22:18:08 18° 126° (SE) 1,374 4.3 -12.5°
